Miscellaneous Local Product
Issued by NWS North Platte, NE

Home | Current Version | Previous Version | Text Only | Print | Product List | Glossary On
Versions: 1 2 3 4 5 6 7 8 9 10 11 12 13 14 15 16 17 18 19 20 21 22 23 24 25 26 27 28 29 30 31 32 33 34 35 36 37 38 39 40 41 42 43 44 45 46 47 48 49 50
000
AXUS43 KLBF 170610
MISLBF


WESTERN AND NORTH CENTRAL NEBRASKA HOURLY WEATHER ROUNDUP
NATIONAL WEATHER SERVICE NORTH PLATTE NE
100 AM CDT WED SEP 17 2014

***STATIONS NOT REPORTING VARIABLES SUCH AS SKY/WEATHER OR
PRESSURE ARE PROVIDED BY THE NEBRASKA DEPARTMENT OF
ROADS...RAWS...AND APRS NETWORKS...AND ARE NOT UNDER
NATIONAL WEATHER SERVICE QUALITY CONTROL***

...OBSERVATIONS IN AND NEAR THE EASTERN PANHANDLE OF NEBRASKA...

CITY           SKY/WX    TMP DP  RH WIND       PRES   REMARKS
PINE RIDGE     CLEAR     51  47  86 CALM      29.98F
CHADRON        PTCLDY    56  50  80 CALM      29.97S
ALLIANCE       CLEAR     54  46  74 CALM      30.00S
SIDNEY         CLEAR     53  46  77 SW7       30.05S
WHITECLAY        N/A     51  46  84 E6          N/A
RUSHVILLE        N/A     50  46  87 SE5         N/A
CRESCENT LAKE    N/A     59  50  72 CALM        N/A
LISCO            N/A     63  50  63 E3          N/A
BIG SPRINGS      N/A     60  56  87 SE3         N/A
$$

...OBSERVATIONS IN NORTH CENTRAL NEBRASKA...

CITY           SKY/WX    TMP DP  RH WIND       PRES   REMARKS
VALENTINE      CLEAR     49  48  97 SW5       29.95S
THEDFORD       CLEAR     57  56  94 CALM      29.98S
AINSWORTH      CLEAR     57  56  97 S7        29.95S
O`NEILL        CLEAR     55  54  97 S7        29.95S
ORD            CLEAR     49  48  97 NW3       29.95F
BROKEN BOW     CLEAR     49  48  97 CALM      29.96F FOG
SPRINGVIEW       N/A     55  53  92 CALM        N/A
ROSE             N/A     57  57 100 E5          N/A
NEWPORT          N/A     58  57  96 S8          N/A
COMSTOCK         N/A     56  55  95 CALM        N/A
CHAMBERS         N/A     55  53  94 SW3         N/A
$$

...OBSERVATIONS IN SOUTHWEST NEBRASKA AND FAR NORTHEAST COLORADO...

CITY           SKY/WX    TMP DP  RH WIND       PRES   REMARKS
WRAY           FAIR      53  48  82 SW5       30.01S
HOLYOKE        FAIR      55  50  82 W5        30.01S
IMPERIAL       CLEAR     56  53  90 CALM      29.99S
OGALLALA       CLEAR     60  56  89 CALM      29.99F
NORTH PLATTE   CLEAR     52  51  97 E5        29.96F FOG
MCCOOK         CLEAR     57  55  93 N3        29.96F
LEXINGTON      CLEAR     53  52  95 CALM      29.97S
PAXTON           N/A     61  57  88 SE5         N/A
SUTHERLAND       N/A     58  55  89 S13         N/A
BRADY            N/A     53  51  92 CALM        N/A
GOTHENBURG       N/A     55  52  89 E3          N/A
CALLAWAY         N/A     56  55  96 S12         N/A
$$

...SOME WEATHER OBSERVATIONS FROM AROUND THE REGION...

CITY           SKY/WX    TMP DP  RH WIND       PRES   REMARKS
DENVER         PTCLDY    66  39  37 S17       30.11F
LARAMIE        MOCLDY    52  36  54 SE7       30.24S
CHEYENNE       MOCLDY    64  36  35 SW9       30.16S
SCOTTSBLUFF    PTCLDY    59  47  64 NE6       30.01F
RAPID CITY     CLEAR     58  46  64 CALM      29.96S
PIERRE         CLEAR     57  51  80 SW5       29.88F
WINNER         FAIR      63  57  81 SW10      29.92R
SIOUX FALLS    CLOUDY    60  49  66 S6        29.96S
OMAHA          CLOUDY    63  51  65 S9        29.98F
GRAND ISLAND   CLEAR     56  50  80 S5        29.95F
KANSAS CITY    CLOUDY    64  57  78 SE7       30.01F
WICHITA        PTCLDY    67  64  90 S12       29.97F
HAYS           CLEAR     64  59  82 S8        29.94F
LIBERAL        CLEAR     66  59  77 SW9       30.02F
GOODLAND       CLEAR     57  50  77 W5        30.01F
$$



USA.gov is the U.S. government's official web portal to all federal, state and local government web resources and services.